GFSSE_500_spd_336.txt.gz
Wind_Speed
22 27 29 25 23 23 21 23 22 23 24 22 25 23 22 22 23 22 21 18 18 18 19 17 16 15 11 8 11 11 14 17 17 15 10 9 6 7 16 23 21 22 22
30 32 26 23 22 21 21 20 21 22 23 22 25 22 23 21 22 21 21 20 18 17 17 17 15 14 14 11 6 10 15 16 15 15 14 11 10 16 21 18 23 24 21
30 31 25 22 23 21 19 20 21 22 22 23 22 23 24 22 22 22 22 19 18 16 17 16 16 16 15 7 8 13 15 15 15 15 15 13 15 20 21 17 19 22 20
26 24 21 22 23 22 19 19 20 20 22 22 20 20 21 22 20 20 21 21 18 17 17 16 16 15 14 12 11 14 18 14 14 13 14 15 18 21 19 18 20 22 25
24 20 20 21 21 19 18 17 18 19 21 23 17 18 17 19 17 19 20 20 19 19 20 18 16 10 10 10 14 13 19 15 15 14 14 15 18 19 20 19 21 22 24
18 18 16 17 18 18 18 17 16 18 20 20 16 16 16 16 15 17 19 18 18 16 18 15 14 11 11 12 14 12 14 15 14 15 15 13 16 20 21 20 22 22 22
19 17 15 18 19 19 17 18 16 16 16 16 15 14 14 14 14 17 18 17 14 18 17 14 17 12 10 10 12 14 14 14 15 15 15 16 16 19 21 22 23 21 18
17 17 17 18 19 18 17 16 14 15 13 12 13 13 14 13 13 15 16 18 17 18 18 15 17 20 15 11 14 14 15 15 16 16 15 18 19 21 20 20 19 17 17
14 15 16 16 17 17 16 15 15 15 13 11 10 10 12 12 11 14 14 18 18 18 16 14 14 18 17 16 14 15 17 16 15 15 15 17 16 17 17 17 15 16 16
14 14 16 15 14 15 15 15 14 13 11 8 8 8 10 9 9 9 12 10 12 14 13 12 11 14 17 19 15 15 15 18 16 14 14 14 16 15 16 14 15 16 18
14 14 15 15 12 12 13 12 12 10 8 7 5 6 8 6 8 7 8 8 15 10 10 10 11 10 12 14 14 11 12 14 15 12 14 13 13 14 15 15 17 16 17
9 11 13 12 12 10 9 9 9 8 8 6 4 4 5 4 5 5 6 8 6 7 7 10 11 9 11 12 12 11 11 14 12 13 12 13 12 12 14 15 17 16 14
5 8 9 10 11 8 7 6 6 6 6 6 5 4 3 5 4 5 5 6 6 6 7 8 9 7 7 9 10 10 8 10 11 12 14 11 13 12 11 13 13 13 14
4 4 5 7 9 9 6 4 3 4 4 4 5 6 4 3 3 4 4 4 5 3 4 6 7 6 6 7 5 7 6 9 7 6 7 10 10 10 8 11 12 13 13
5 5 4 4 5 4 2 0 1 1 3 4 4 5 4 3 2 0 3 2 3 3 3 4 4 5 4 4 3 1 3 4 6 3 6 8 7 3 3 6 9 12 13
4 4 5 6 7 6 5 4 3 2 4 4 4 4 4 3 2 1 2 1 2 2 3 4 4 3 3 3 2 3 2 0 0 3 3 7 6 7 7 7 5 6 9
5 7 7 8 8 10 9 7 4 3 4 4 6 6 5 3 0 1 1 3 4 4 2 3 3 3 2 2 3 2 3 2 1 4 5 5 6 7 8 6 5 4 4
4 5 8 10 11 12 12 10 7 5 4 5 6 6 6 4 3 4 4 4 5 5 4 3 3 2 2 2 2 2 3 1 2 7 7 6 7 6 5 5 3 4 4
4 7 7 7 8 10 10 10 8 6 6 6 4 5 6 5 5 4 3 4 5 4 5 3 3 3 1 0 1 1 4 3 5 2 7 11 8 6 6 3 1 2 5
2 5 9 9 8 8 9 9 9 9 7 6 4 5 5 3 3 3 3 7 8 8 7 6 3 3 3 2 2 1 1 3 2 2 5 6 8 5 4 2 1 3 5
2 2 5 9 8 10 9 10 10 11 10 5 4 6 5 2 3 3 6 9 11 13 13 11 8 5 4 6 4 3 3 3 3 2 1 4 4 4 3 1 2 3 4
2 2 2 3 3 6 8 9 10 9 8 5 5 5 5 1 1 2 6 9 14 16 15 10 12 7 5 7 6 5 4 4 5 4 4 3 3 3 3 3 3 4 4
4 3 1 2 3 5 6 7 8 7 6 5 5 6 6 2 2 4 5 11 14 17 14 10 11 7 4 5 7 6 6 6 5 4 4 4 3 4 5 5 5 5 5
4 4 2 2 2 3 4 6 7 7 6 5 6 8 6 3 1 2 6 11 15 15 13 8 9 5 4 5 6 8 9 7 6 5 4 2 3 3 4 6 7 8 7
3 2 2 1 1 1 2 4 6 7 8 8 8 9 6 4 1 2 7 12 16 15 12 4 8 4 3 3 2 1 4 5 5 4 4 4 4 3 5 7 7 6 6
5 3 2 3 2 2 1 1 3 8 9 9 9 7 8 6 3 3 7 13 17 15 6 8 6 4 3 2 1 1 2 3 4 5 5 5 5 5 5 5 5 7 8

GFSSE_500_spd_339.txt.gz
Wind_Speed
28 30 26 28 26 25 24 24 19 21 22 21 22 23 20 21 21 19 18 17 18 16 17 17 19 15 12 14 15 15 18 17 18 13 10 7 7 11 22 21 20 21 19
27 29 26 27 26 24 23 22 20 21 21 22 23 23 18 19 19 19 17 17 19 17 18 19 21 19 19 17 17 17 17 16 18 16 10 8 11 12 18 21 20 20 18
30 25 24 25 25 23 23 22 21 20 21 23 24 23 18 18 18 19 16 17 18 17 18 20 20 20 20 21 21 16 18 17 17 17 10 9 19 22 17 21 21 20 16
30 23 21 18 23 23 23 21 20 21 18 21 21 21 17 16 19 17 18 18 19 17 18 20 18 18 18 20 19 18 17 16 15 16 9 13 15 20 14 20 19 19 16
22 23 21 20 20 22 22 21 18 20 18 18 19 17 14 15 18 15 16 17 15 18 19 18 18 18 19 19 17 20 16 17 14 12 10 15 16 17 17 21 20 21 18
22 20 19 17 17 19 20 21 18 18 17 15 17 15 14 17 17 14 14 17 14 15 20 21 18 18 16 18 16 16 16 16 14 13 10 13 14 17 18 20 20 20 19
16 17 16 16 17 18 18 20 17 15 14 14 15 14 15 16 16 14 14 16 18 16 20 22 20 18 17 15 16 16 15 14 15 14 14 14 17 17 20 20 20 20 19
16 15 16 14 15 17 16 17 15 13 12 13 13 13 14 14 15 15 18 18 17 17 19 20 22 20 18 17 19 17 13 13 15 16 16 16 18 18 19 19 17 17 16
12 12 14 14 14 14 15 14 14 12 10 12 12 11 11 12 14 12 11 15 15 16 16 16 19 19 18 18 15 20 14 13 15 16 17 16 17 17 16 15 15 15 14
12 10 11 12 11 12 12 14 12 11 9 10 10 9 10 8 10 10 7 14 13 12 13 12 15 15 17 18 15 15 15 15 13 15 15 14 16 15 14 12 11 12 14
12 11 8 9 9 9 8 10 8 7 6 6 6 7 8 9 7 9 8 13 12 11 13 10 12 14 15 17 14 17 14 14 13 11 14 16 15 13 11 12 14 14 14
8 8 8 8 9 9 7 7 6 5 4 3 4 5 6 7 6 7 6 9 7 9 11 10 10 12 13 15 15 13 13 12 13 12 9 14 13 14 12 13 14 15 12
8 8 6 5 6 6 4 3 2 4 3 1 2 4 5 6 4 4 6 6 5 5 7 7 8 8 10 11 14 14 13 12 11 12 12 9 10 10 9 11 11 10 10
7 7 5 4 3 4 3 2 2 2 1 1 1 3 4 4 2 4 4 3 2 2 2 4 4 6 6 7 8 9 9 10 7 4 8 13 11 6 6 7 8 8 8
5 4 5 6 6 3 0 3 3 3 2 1 1 1 2 1 1 5 4 4 4 3 4 3 3 2 2 2 3 3 5 5 6 4 3 6 6 4 3 4 5 5 6
3 4 3 3 4 3 4 4 3 4 3 3 2 2 1 1 1 5 6 6 7 5 4 2 2 1 0 0 1 1 1 2 2 2 2 2 2 3 4 3 3 4 7
4 5 4 5 5 6 7 9 7 4 3 5 4 3 2 1 3 3 4 4 6 7 6 4 2 1 1 1 2 3 3 3 3 5 3 3 3 2 5 4 2 2 2
3 5 7 9 9 10 10 10 8 5 3 3 5 4 4 2 1 3 1 4 6 7 7 6 2 2 3 2 2 1 1 2 2 6 8 6 6 6 5 5 3 2 4
4 7 6 6 8 8 8 9 7 5 4 4 5 5 4 4 4 3 1 3 8 9 10 9 4 1 3 4 2 3 5 4 3 1 4 5 6 10 8 5 2 3 2
4 5 8 6 6 7 7 8 9 8 7 5 5 6 5 3 2 4 1 7 8 10 11 11 9 2 2 3 1 1 3 3 7 4 7 9 5 6 9 6 1 2 4
6 5 5 6 7 8 10 9 9 9 9 5 4 8 7 4 3 3 6 8 11 12 13 9 8 4 4 4 4 2 2 1 3 4 4 2 3 4 6 2 0 2 3
4 5 4 3 4 5 6 8 8 9 10 7 7 8 7 5 3 4 7 10 13 16 13 8 4 5 4 5 5 4 4 5 5 3 1 0 1 3 3 3 3 5 5
5 2 2 2 2 1 2 4 5 6 7 8 7 8 7 5 3 4 6 10 14 17 13 8 2 6 5 5 6 6 5 6 6 4 3 2 2 2 3 3 5 6 6
6 4 3 2 2 2 3 4 6 6 6 7 7 8 8 5 3 4 6 10 16 17 13 7 6 6 4 5 7 8 7 7 7 5 3 3 2 1 2 4 5 7 8
4 4 3 3 3 2 2 4 6 7 7 8 8 8 7 4 4 4 6 10 16 17 12 1 11 6 2 2 3 4 2 7 5 5 5 4 4 4 5 5 5 3 4
6 5 5 3 2 2 2 3 5 8 9 9 8 8 8 6 5 3 4 8 13 14 9 7 7 4 3 1 1 1 1 2 5 6 6 6 6 6 6 5 7 5 5

GFSSE_500_spd_342.txt.gz
Wind_Speed
29 26 25 25 25 23 21 19 19 19 15 16 17 21 19 18 17 18 18 19 19 18 18 21 24 26 25 17 18 20 21 22 19 18 13 10 11 17 18 23 23 21 21
31 26 23 24 24 24 22 21 21 20 16 16 16 20 19 17 17 19 19 19 21 20 19 21 25 24 24 19 19 23 20 22 19 13 14 13 14 16 21 24 23 22 20
33 28 24 24 23 21 21 21 20 19 18 18 17 17 20 16 20 20 20 19 22 19 19 24 24 24 23 23 21 22 20 21 21 14 12 17 18 15 20 22 22 21 16
28 24 22 23 20 22 19 20 20 18 17 17 17 17 19 15 21 20 19 20 23 25 21 23 22 21 23 24 22 21 19 19 21 17 14 13 19 17 19 21 21 19 14
24 20 19 19 20 19 19 17 17 14 16 15 16 15 18 15 21 21 17 19 22 26 25 23 22 20 22 21 21 19 17 19 20 18 16 13 13 16 18 20 18 16 18
17 22 19 19 16 16 17 16 15 12 15 15 17 15 16 18 20 18 19 17 21 26 26 24 21 20 20 21 19 18 17 16 16 13 15 14 15 19 18 19 18 16 22
13 17 18 17 16 15 15 14 13 12 14 16 17 15 17 18 23 21 19 19 20 24 25 24 20 20 20 19 19 17 15 17 17 16 14 14 16 18 18 19 18 17 19
15 13 15 16 15 14 13 12 11 11 12 14 16 13 15 16 16 19 18 18 18 20 20 23 21 19 18 20 18 16 17 18 16 15 11 14 15 17 17 16 15 15 15
10 11 11 14 13 12 12 9 10 10 10 10 12 12 12 12 14 12 16 17 16 17 17 17 19 19 18 17 19 18 14 19 18 14 8 14 16 16 16 14 14 13 13
8 9 12 11 11 10 9 9 8 8 8 9 9 10 11 11 14 15 14 13 15 16 16 15 18 19 18 18 17 19 16 15 11 11 14 14 15 12 14 13 13 12 12
16 5 8 9 8 10 6 5 5 4 5 6 8 8 10 9 9 10 13 13 15 13 14 13 15 17 19 17 17 17 17 15 10 11 12 13 13 11 11 11 11 12 11
8 5 6 7 5 6 4 3 2 1 2 4 6 8 7 5 4 10 10 10 10 11 12 12 12 13 15 17 18 16 15 15 14 9 11 11 12 11 10 11 11 13 11
8 7 5 4 4 5 4 3 4 3 3 4 5 6 3 5 17 14 7 8 8 8 8 9 10 8 10 12 9 18 13 14 15 14 10 9 10 11 12 11 11 9 6
5 4 5 5 4 3 5 5 5 4 3 3 3 4 1 5 9 10 8 6 8 7 6 5 6 6 6 5 9 11 13 10 9 7 12 11 9 8 9 9 8 7 6
6 4 3 4 5 1 2 4 4 4 4 2 0 2 1 1 5 6 7 9 9 8 6 5 5 3 4 4 3 4 5 8 9 4 6 6 6 6 4 6 7 7 5
4 4 3 2 0 2 3 5 6 7 6 5 2 0 1 0 1 7 7 7 6 7 5 4 3 3 3 1 1 2 2 4 3 3 3 3 3 3 4 4 2 2 3
1 2 2 3 3 3 5 6 8 8 8 4 4 2 2 2 3 5 6 5 6 5 6 7 6 6 8 1 4 3 1 2 3 2 5 2 4 3 4 3 4 3 2
3 4 5 6 7 7 8 7 6 3 6 3 6 3 4 1 2 3 5 6 7 9 9 7 5 4 6 7 15 2 3 2 1 3 8 5 2 2 4 3 2 2 1
7 6 4 5 5 5 6 7 5 4 4 3 2 4 4 1 2 3 3 7 6 8 10 8 4 1 2 2 2 1 4 7 4 3 1 5 7 7 7 6 1 4 1
5 6 5 4 3 5 5 6 4 3 4 6 4 5 4 1 3 2 4 8 9 12 14 12 6 2 6 2 3 4 5 3 4 3 5 3 7 8 13 11 3 2 3
5 6 5 5 2 4 5 5 4 5 10 9 14 10 6 2 4 3 8 8 12 10 17 13 7 6 8 7 5 4 2 5 4 4 6 1 2 6 8 7 3 1 3
7 7 5 5 5 4 3 2 3 6 9 8 6 8 5 4 5 6 8 9 9 16 15 12 6 8 8 8 6 4 5 5 3 3 1 1 2 4 3 3 2 1 1
8 7 6 5 5 5 4 3 2 4 8 8 9 6 2 3 5 6 7 11 13 16 14 11 5 10 9 6 5 6 6 7 6 4 2 2 2 0 1 0 2 1 0
5 6 6 5 4 4 3 4 4 3 6 5 4 4 5 5 6 6 7 11 16 16 13 7 3 9 7 4 4 6 8 10 8 5 4 4 4 3 3 4 3 4 5
6 4 5 5 6 7 6 4 4 6 6 7 6 6 7 6 6 4 7 11 15 14 8 6 8 6 3 3 2 3 4 4 4 3 3 4 5 5 5 5 6 4 3
7 6 5 7 7 8 8 8 8 7 7 8 6 7 7 4 6 5 6 10 13 11 8 6 5 4 3 4 4 5 4 3 3 5 5 6 7 6 6 6 6 6 5

GFSSE_500_spd_345.txt.gz
Wind_Speed
29 22 20 19 20 18 17 15 16 16 19 18 16 15 18 20 17 22 20 17 16 18 21 25 23 20 20 22 23 23 22 20 18 18 19 20 20 23 27 24 24 25 26
29 22 21 18 18 17 19 16 16 16 17 17 17 16 18 20 20 22 20 16 15 21 23 24 24 25 22 23 23 24 20 20 17 19 19 18 21 23 26 24 23 23 23
26 23 21 19 17 18 19 17 16 16 16 15 15 16 19 18 19 23 23 19 17 23 22 22 24 25 21 24 24 23 22 19 19 17 18 23 23 25 26 26 23 20 21
28 21 21 18 16 17 18 17 17 16 14 15 16 18 19 16 20 25 26 28 21 23 22 25 25 24 21 23 24 24 23 21 21 20 17 20 22 23 23 24 22 19 19
26 19 17 18 15 15 18 15 15 15 12 15 18 20 16 17 22 23 24 27 26 24 23 24 24 25 20 23 23 26 19 19 23 20 17 17 20 22 22 21 17 16 17
27 22 15 17 15 13 16 15 14 13 13 16 18 20 19 20 22 22 21 24 27 26 22 22 25 24 22 20 22 23 16 17 21 21 17 15 17 18 20 18 15 18 19
26 24 13 14 14 13 15 14 12 12 12 15 15 17 19 20 20 20 20 22 23 26 23 20 20 24 23 21 20 21 16 18 18 20 14 17 18 18 18 16 17 19 18
13 15 13 11 13 14 14 12 11 10 11 12 12 14 15 15 15 18 18 19 20 21 22 20 18 19 22 21 20 24 23 15 16 17 15 18 19 18 17 15 16 17 15
17 13 11 10 9 11 10 8 10 9 9 9 10 10 13 15 12 13 17 19 19 19 23 19 16 18 19 22 18 18 22 17 16 16 14 19 19 17 17 16 15 15 14
11 12 13 10 7 7 5 5 7 7 7 10 9 9 11 13 13 14 16 17 18 15 20 19 18 15 19 20 22 19 18 14 15 17 15 17 19 16 17 16 14 13 13
12 10 14 12 9 9 4 5 3 4 6 8 8 8 8 9 9 11 13 15 14 13 17 16 17 17 16 16 18 20 19 14 14 11 12 15 14 14 15 15 15 15 14
11 8 8 6 7 5 5 3 3 4 5 7 6 5 4 7 7 11 12 12 12 12 13 13 14 14 16 14 16 18 21 10 8 9 7 9 12 13 13 13 14 14 13
11 9 8 6 5 4 7 4 4 5 7 5 4 3 4 16 10 7 10 9 10 9 10 10 10 10 11 10 16 15 19 15 13 8 9 9 8 9 13 13 14 12 11
11 9 11 7 5 4 6 5 5 6 4 2 3 4 2 9 7 9 8 8 9 9 7 8 7 8 8 7 9 13 12 9 11 11 11 9 9 9 10 11 11 9 9
9 12 12 15 7 2 3 6 7 5 3 2 1 6 6 7 7 8 10 9 10 10 8 8 6 6 7 6 5 3 7 10 8 5 7 8 9 6 7 8 8 7 7
5 8 10 10 8 3 2 3 4 5 5 4 4 4 2 4 4 7 7 9 12 11 7 7 7 5 4 2 2 2 3 7 3 5 2 4 4 6 7 5 6 5 5
3 3 4 6 6 3 3 5 5 4 4 6 3 2 2 2 3 7 7 9 8 7 7 6 7 6 4 2 1 7 5 6 2 4 1 4 6 7 7 5 4 5 5
4 1 2 4 4 4 6 6 6 3 5 7 5 5 4 2 5 6 5 6 7 8 6 5 4 4 6 3 7 2 10 3 5 2 5 6 4 6 6 5 4 3 2
6 6 2 2 3 4 4 6 4 4 6 5 1 5 6 2 1 4 3 8 8 9 12 8 2 1 5 4 5 1 6 6 3 4 2 6 4 5 4 4 3 5 1
5 7 7 1 3 4 3 3 4 7 1 2 9 5 7 10 6 6 5 10 11 11 15 12 4 6 5 4 5 4 5 6 7 3 4 2 1 9 7 9 4 4 1
6 8 8 4 1 3 5 4 4 2 2 2 4 2 6 8 5 6 8 8 11 15 14 11 6 5 6 7 7 2 4 8 8 7 6 4 5 6 7 13 9 2 1
8 9 8 7 5 4 2 1 3 2 1 5 4 7 3 3 3 3 4 7 11 14 16 10 2 5 6 4 4 5 5 3 5 3 1 2 3 4 5 4 4 3 3
8 10 9 8 7 7 8 7 7 5 3 1 3 5 6 5 3 5 3 9 13 14 14 10 5 4 5 3 5 6 6 3 3 1 1 1 1 2 3 5 4 4 4
6 9 11 10 10 8 7 8 8 7 5 2 4 6 8 4 1 5 8 8 11 13 11 8 5 6 3 2 3 5 7 8 5 2 3 4 2 1 1 2 3 5 5
4 7 7 7 8 7 7 7 7 5 4 1 1 8 7 2 3 3 5 11 13 11 13 11 9 5 2 1 1 3 3 1 2 2 4 3 2 3 4 4 3 4 4
12 10 5 6 4 4 4 5 6 6 4 0 2 3 4 2 5 1 4 7 11 9 9 9 7 5 3 2 1 1 3 5 3 2 2 2 3 3 2 2 2 4 4